Meteo Giornale » Osservazioni meteo Stati Uniti (USA) » Islip Long Island Mac Arthur

ore: 12:56 - Osservazioni Meteo Islip Long Island Mac Arthur
Lat. 40° 47' N Lon. 73° 6' W Alt. 30 metri s.l.m.

coperto_pioggia

23 °C

Pioggia Foschia

Temp. 24 Ore

21 °C

24 °C

Sud/Sud-Est

11.1 Km/h

Dew point 22 °C

Umidità 94 %

Visibilità  6 Km

Il sole sorge alle ore 06:19

Il sole tramonta alle ore 19:25

Data e Ora Cielo e Fenomeni T °C DP °C Um. % Pres. hPa Vis. km Vento km/h
Oggi h: 12:56 coperto_pioggia Pioggia Foschia 23 22 94 1015 6 S/SE 11.1
Oggi h: 11:56 coperto_pioggia Pioggia Foschia 22 22 100 1016 3 S/SE 11.1
Oggi h: 10:56 foschia Foschia 22 21 94 1016 10 E/SE 7.4
Oggi h: 09:56 foschia Foschia 22 21 94 1016 10 SE 9.3
Oggi h: 08:56 foschia Foschia 21 20 94 1016 10 SE 13
Oggi h: 07:56 foschia Foschia 21 20 94 1016 10 S/SE 14.8
Oggi h: 07:27 foschia Foschia 21 20 94 1016 10 N 5.5
Oggi h: 06:56 foschia Foschia 21 20 94 1016 10 SE 7.4
Oggi h: 05:56 coperto_pioggia Pioggia Foschia 21 20 94 1016 10 SE 7.4
Oggi h: 04:56 coperto Coperto 21 20 94 1016 10 SE 9.3
Oggi h: 04:17 coperto Coperto 21 20 94 1017 10 S 7.4
Oggi h: 03:56 coperto_pioggia Pioggia 21 20 94 1017 11 S/SE 7.4
Oggi h: 03:47 coperto_pioggia Pioggia Foschia 21 20 94 1017 6 N 0
Oggi h: 03:33 coperto_pioggia Pioggia Foschia 21 20 94 1017 2 N 5.5
Oggi h: 03:28 coperto_pioggia Pioggia Foschia 21 20 94 1017 5 S/SE 9.3
Oggi h: 03:15 coperto_pioggia Pioggia 21 20 94 1017 14 S/SE 7.4
Oggi h: 03:05 coperto_pioggia Pioggia 21 20 94 1017 13 N 5.5
Oggi h: 02:56 coperto_pioggia Pioggia 21 20 94 1017 13 S 11.1
Oggi h: 02:49 coperto_pioggia Pioggia Foschia 21 20 94 1017 8 S 11.1
Oggi h: 02:36 coperto_pioggia Pioggia Foschia 21 20 94 1017 3 S/SE 11.1
Oggi h: 02:34 coperto_pioggia Pioggia Foschia 21 20 94 1017 5 S/SE 11.1
Oggi h: 02:23 coperto_pioggia Pioggia Foschia 21 20 94 1017 5 N 5.5
Oggi h: 02:21 coperto_pioggia Pioggia Foschia 21 20 94 1017 3 N 5.5
Oggi h: 02:09 coperto_pioggia Pioggia Foschia 21 20 94 1017 2 S 9.3
Oggi h: 02:01 coperto_pioggia Pioggia Foschia 21 21 100 1017 2 S 7.4
Oggi h: 01:56 coperto_pioggia Pioggia Foschia 21 20 94 1017 6 N 5.5
Oggi h: 00:56 coperto Coperto 22 20 88 1017 10 S 9.3
Ieri h: 23:56 coperto_pioggia Pioggia 22 19 83 1018 10 S 9.3
Ieri h: 22:56 coperto Coperto 22 19 83 1018 10 S/SO 9.3
Ieri h: 21:56 coperto Coperto 22 19 83 1018 10 S 11.1
Ieri h: 20:56 coperto Coperto 22 18 78 1018 10 S/SE 9.3
Ieri h: 19:56 coperto Coperto 22 18 78 1018 10 SE 13
Ieri h: 18:56 coperto Coperto 22 18 78 1018 10 SE 13
Ieri h: 17:56 molto_nuvoloso Molto Nuvoloso 23 18 73 1019 10 S/SE 14.8
Ieri h: 16:56 molto_nuvoloso Molto Nuvoloso 23 18 73 1019 10 S/SE 16.7
Ieri h: 15:56 molto_nuvoloso Molto Nuvoloso 23 18 73 1019 10 SE 16.7
Ieri h: 14:56 molto_nuvoloso Molto Nuvoloso 24 18 69 1019 10 SE 16.7
Ieri h: 13:56 molto_nuvoloso Molto Nuvoloso 24 18 69 1020 10 SE 14.8